,,PA_Meas_PMT16A,,PR_Meas_QMR101_102,,RH_Meas_QMH101,,SR_Meas_QMS101,,TA_Meas_QMH101,,GenWind,,GenWind,
time,status,PA,status,PR,status,RH,status,SR,status,TA,status,DirAvg,status,SpdAvg,
2013-12-20, 00:00:04,VALID,918.559,VALID,0,VALID,96.7564,VALID,0,VALID,19.7823,VALID,236,VALID,0,
2013-12-20, 00:01:04,VALID,918.525,VALID,0.2,VALID,96.7411,VALID,0,VALID,19.7628,VALID,254,VALID,0,
2013-12-20, 00:02:04,VALID,918.536,VALID,0.2,VALID,96.7183,VALID,0,VALID,19.7628,VALID,248,VALID,0,
2013-12-20, 00:03:04,VALID,918.549,VALID,0,VALID,96.7335,VALID,0,VALID,19.7613,VALID,247,VALID,0,
2013-12-20, 00:04:04,VALID,918.527,VALID,0.2,VALID,96.7335,VALID,0,VALID,19.7613,VALID,242,VALID,0,
2013-12-20, 00:05:04,VALID,918.568,VALID,0,VALID,96.7488,VALID,0,VALID,19.7628,VALID,252,VALID,0,
2013-12-20, 00:06:04,VALID,918.561,VALID,0,VALID,96.7183,VALID,0,VALID,19.7418,VALID,234,VALID,0,
2013-12-20, 00:07:04,VALID,918.589,VALID,0.2,VALID,96.7183,VALID,0,VALID,19.7418,VALID,248,VALID,0,
2013-12-20, 00:08:04,VALID,918.563,VALID,0,VALID,96.7335,VALID,0,VALID,19.8018,VALID,246,VALID,0,
2013-12-20, 00:09:04,VALID,918.568,VALID,0.2,VALID,96.7564,VALID,0,VALID,19.8003,VALID,248,VALID,0,
2013-12-20, 00:10:04,VALID,918.573,VALID,0,VALID,96.764,VALID,0,VALID,19.8198,VALID,247,VALID,0,
2013-12-20, 00:11:04,VALID,918.5,VALID,0.2,VALID,96.764,VALID,0,VALID,19.8213,VALID,247,VALID,0,
2013-12-20, 00:12:04,VALID,918.481,VALID,0,VALID,96.764,VALID,0,VALID,19.8003,VALID,247,VALID,0,
2013-12-20, 00:13:04,VALID,918.442,VALID,0.2,VALID,96.7869,VALID,0,VALID,19.8018,VALID,250,VALID,0,
2013-12-20, 00:14:04,VALID,918.451,VALID,0,VALID,96.7945,VALID,0,VALID,19.7598,VALID,250,VALID,0,
2013-12-20, 00:15:04,VALID,918.439,VALID,0,VALID,96.8326,VALID,0,VALID,19.8198,VALID,250,VALID,0,
2013-12-20, 00:16:04,VALID,918.394,VALID,0.2,VALID,96.7945,VALID,0,VALID,19.8198,VALID,250,VALID,0,
2013-12-20, 00:17:04,VALID,918.38,VALID,0,VALID,96.8021,VALID,0,VALID,19.8393,VALID,250,VALID,0,
2013-12-20, 00:18:04,VALID,918.35,VALID,0,VALID,96.8174,VALID,0,VALID,19.8393,VALID,250,VALID,0,
2013-12-20, 00:19:04,VALID,918.341,VALID,0.2,VALID,96.825,VALID,0,VALID,19.8783,VALID,250,VALID,0,
2013-12-20, 00:20:04,VALID,918.328,VALID,0,VALID,96.8479,VALID,0,VALID,19.8963,VALID,264,VALID,0,
2013-12-20, 00:21:04,VALID,918.325,VALID,0,VALID,96.8479,VALID,0,VALID,19.9158,VALID,264,VALID,0,
2013-12-20, 00:22:04,VALID,918.305,VALID,0,VALID,96.8479,VALID,0,VALID,19.9773,VALID,264,VALID,0,
2013-12-20, 00:23:04,VALID,918.324,VALID,0,VALID,96.825,VALID,0.107441,VALID,19.9578,VALID,274,VALID,0,
2013-12-20, 00:24:04,VALID,918.325,VALID,0,VALID,96.8403,VALID,0,VALID,19.9158,VALID,359,VALID,0,
2013-12-20, 00:25:04,VALID,918.345,VALID,0.2,VALID,96.8555,VALID,0,VALID,19.9968,VALID,359,VALID,0,
2013-12-20, 00:26:04,VALID,918.34,VALID,0,VALID,96.8784,VALID,0,VALID,20.0148,VALID,359,VALID,0,
2013-12-20, 00:27:04,VALID,918.369,VALID,0,VALID,96.8784,VALID,0,VALID,19.9758,VALID,359,VALID,0,
2013-12-20, 00:28:04,VALID,918.36,VALID,0,VALID,96.8555,VALID,0,VALID,19.9548,VALID,359,VALID,0,
2013-12-20, 00:29:04,VALID,918.384,VALID,0,VALID,96.8707,VALID,0,VALID,19.9953,VALID,359,VALID,0,
2013-12-20, 00:30:04,VALID,918.393,VALID,0,VALID,96.8707,VALID,0.107441,VALID,19.9953,VALID,359,VALID,0,
2013-12-20, 00:31:04,VALID,918.365,VALID,0.2,VALID,96.8784,VALID,0,VALID,19.9758,VALID,359,VALID,0,
2013-12-20, 00:32:04,VALID,918.401,VALID,0,VALID,96.9089,VALID,0,VALID,19.9368,VALID,359,VALID,0,
2013-12-20, 00:33:04,VALID,918.414,VALID,0,VALID,96.8936,VALID,0,VALID,19.8993,VALID,359,VALID,0,
2013-12-20, 00:34:04,VALID,918.41,VALID,0,VALID,96.8784,VALID,0,VALID,19.8798,VALID,359,VALID,0,
2013-12-20, 00:35:04,VALID,918.44,VALID,0,VALID,96.886,VALID,0,VALID,19.8798,VALID,346,VALID,0,
2013-12-20, 00:36:04,VALID,918.423,VALID,0,VALID,96.9089,VALID,0,VALID,19.8408,VALID,350,VALID,0,
2013-12-20, 00:37:04,VALID,918.417,VALID,0,VALID,96.9012,VALID,0,VALID,19.8018,VALID,350,VALID,0,
2013-12-20, 00:38:04,VALID,918.453,VALID,0,VALID,96.9012,VALID,0,VALID,19.8213,VALID,350,VALID,0,
2013-12-20, 00:39:04,VALID,918.457,VALID,0.2,VALID,96.9089,VALID,0,VALID,19.8213,VALID,359,VALID,0,
2013-12-20, 00:40:04,VALID,918.418,VALID,0,VALID,96.9165,VALID,0,VALID,19.7823,VALID,1,VALID,0,
2013-12-20, 00:41:04,VALID,918.453,VALID,0,VALID,96.9317,VALID,0,VALID,19.8018,VALID,349,VALID,0,
2013-12-20, 00:42:04,VALID,918.391,VALID,0,VALID,96.9241,VALID,0,VALID,19.8018,VALID,349,VALID,0,
2013-12-20, 00:43:04,VALID,918.377,VALID,0,VALID,96.9165,VALID,0,VALID,19.8018,VALID,22,VALID,0,
2013-12-20, 00:44:04,VALID,918.377,VALID,0,VALID,96.9394,VALID,0,VALID,19.8213,VALID,360,VALID,0,
2013-12-20, 00:45:04,VALID,918.384,VALID,0,VALID,96.947,VALID,0,VALID,19.7823,VALID,356,VALID,0,
2013-12-20, 00:46:04,VALID,918.366,VALID,0,VALID,96.9394,VALID,0,VALID,19.7628,VALID,347,VALID,0,
2013-12-20, 00:47:04,VALID,918.393,VALID,0,VALID,96.947,VALID,0,VALID,19.7433,VALID,332,VALID,0,
2013-12-20, 00:48:04,VALID,918.348,VALID,0,VALID,96.947,VALID,0,VALID,19.7628,VALID,332,VALID,0,
2013-12-20, 00:49:04,VALID,918.342,VALID,0,VALID,96.9622,VALID,0,VALID,19.7433,VALID,336,VALID,0,
2013-12-20, 00:50:04,VALID,918.358,VALID,0,VALID,96.9622,VALID,0,VALID,19.7433,VALID,332,VALID,0,
2013-12-20, 00:51:04,VALID,918.314,VALID,0.2,VALID,96.9698,VALID,0,VALID,19.7628,VALID,332,VALID,0,
2013-12-20, 00:52:04,VALID,918.288,VALID,0,VALID,96.9851,VALID,0,VALID,19.7433,VALID,339,VALID,0,
2013-12-20, 00:53:04,VALID,918.294,VALID,0,VALID,96.9698,VALID,0,VALID,19.7433,VALID,343,VALID,0,
2013-12-20, 00:54:04,VALID,918.322,VALID,0,VALID,96.9775,VALID,0,VALID,19.7628,VALID,343,VALID,0,
2013-12-20, 00:55:04,VALID,918.308,VALID,0,VALID,96.9698,VALID,0,VALID,19.7628,VALID,343,VALID,0,
2013-12-20, 00:56:04,VALID,918.286,VALID,0,VALID,97.0003,VALID,0,VALID,19.7433,VALID,342,VALID,0,
2013-12-20, 00:57:04,VALID,918.296,VALID,0,VALID,97.008,VALID,0,VALID,19.7238,VALID,342,VALID,0,
2013-12-20, 00:58:04,VALID,918.276,VALID,0,VALID,96.9927,VALID,0,VALID,19.7433,VALID,342,VALID,0,
2013-12-20, 00:59:04,VALID,918.305,VALID,0,VALID,97.0003,VALID,0,VALID,19.7643,VALID,342,VALID,0,
2013-12-20, 01:00:04,VALID,918.27,VALID,0,VALID,97.0003,VALID,0,VALID,19.7433,VALID,342,VALID,0,
2013-12-20, 01:01:04,VALID,918.26,VALID,0,VALID,97.008,VALID,0,VALID,19.7433,VALID,342,VALID,0,
2013-12-20, 01:02:04,VALID,918.291,VALID,0,VALID,97.0156,VALID,0,VALID,19.7238,VALID,342,VALID,0,
2013-12-20, 01:03:04,VALID,918.298,VALID,0,VALID,97.0156,VALID,0,VALID,19.7238,VALID,342,VALID,0,
2013-12-20, 01:04:04,VALID,918.259,VALID,0,VALID,97.008,VALID,0,VALID,19.7028,VALID,342,VALID,0,
2013-12-20, 01:05:04,VALID,918.257,VALID,0,VALID,97.0156,VALID,0,VALID,19.7238,VALID,343,VALID,0,
2013-12-20, 01:06:04,VALID,918.245,VALID,0,VALID,97.0308,VALID,0,VALID,19.6443,VALID,46,VALID,0,
2013-12-20, 01:07:04,VALID,918.24,VALID,0,VALID,97.0461,VALID,0,VALID,19.6248,VALID,57,VALID,0,
2013-12-20, 01:08:04,VALID,918.254,VALID,0,VALID,97.0156,VALID,0,VALID,19.6653,VALID,57,VALID,0,
2013-12-20, 01:09:04,VALID,918.245,VALID,0,VALID,97.0156,VALID,0,VALID,19.6848,VALID,57,VALID,0,
2013-12-20, 01:10:04,VALID,918.238,VALID,0,VALID,97.0232,VALID,0,VALID,19.6653,VALID,57,VALID,0,
2013-12-20, 01:11:04,VALID,918.235,VALID,0,VALID,97.008,VALID,0,VALID,19.6833,VALID,57,VALID,0,
2013-12-20, 01:12:04,VALID,918.216,VALID,0,VALID,97.0461,VALID,0,VALID,19.7043,VALID,57,VALID,0,
2013-12-20, 01:13:04,VALID,918.198,VALID,0,VALID,97.008,VALID,0,VALID,19.7043,VALID,57,VALID,0,
2013-12-20, 01:14:04,VALID,918.243,VALID,0,VALID,97.0308,VALID,0,VALID,19.6833,VALID,57,VALID,0,
2013-12-20, 01:15:04,VALID,918.193,VALID,0,VALID,97.0385,VALID,0,VALID,19.7043,VALID,57,VALID,0,
2013-12-20, 01:16:04,VALID,918.168,VALID,0,VALID,97.0385,VALID,0,VALID,19.6653,VALID,57,VALID,0,
2013-12-20, 01:17:04,VALID,918.174,VALID,0,VALID,97.0232,VALID,0,VALID,19.6458,VALID,57,VALID,0,
2013-12-20, 01:18:04,VALID,918.174,VALID,0,VALID,97.0537,VALID,0.107441,VALID,19.6053,VALID,57,VALID,0,
2013-12-20, 01:19:04,VALID,918.157,VALID,0.2,VALID,97.0385,VALID,0.107441,VALID,19.6053,VALID,57,VALID,0,
2013-12-20, 01:20:04,VALID,918.158,VALID,0,VALID,97.0232,VALID,0,VALID,19.6053,VALID,57,VALID,0,
2013-12-20, 01:21:04,VALID,918.135,VALID,0,VALID,97.0385,VALID,0,VALID,19.5858,VALID,57,VALID,0,
2013-12-20, 01:22:04,VALID,918.137,VALID,0,VALID,97.0537,VALID,0.107441,VALID,19.6053,VALID,57,VALID,0,
2013-12-20, 01:23:04,VALID,918.127,VALID,0,VALID,97.0385,VALID,0.107441,VALID,19.6053,VALID,57,VALID,0,
2013-12-20, 01:24:04,VALID,918.103,VALID,0,VALID,97.0232,VALID,0.107441,VALID,19.5843,VALID,57,VALID,0,
2013-12-20, 01:25:04,VALID,918.076,VALID,0,VALID,97.0537,VALID,0.107441,VALID,19.6248,VALID,57,VALID,0,
2013-12-20, 01:26:04,VALID,918.032,VALID,0,VALID,97.0461,VALID,0.107441,VALID,19.6233,VALID,57,VALID,0,
2013-12-20, 01:27:04,VALID,918.04,VALID,0,VALID,97.0385,VALID,0.107441,VALID,19.6233,VALID,57,VALID,0,
2013-12-20, 01:28:04,VALID,917.992,VALID,0,VALID,97.0461,VALID,0.107441,VALID,19.6233,VALID,57,VALID,0,
2013-12-20, 01:29:04,VALID,917.981,VALID,0,VALID,97.0232,VALID,0,VALID,19.6443,VALID,58,VALID,0,
2013-12-20, 01:30:04,VALID,917.977,VALID,0,VALID,97.0613,VALID,0.107441,VALID,19.6248,VALID,132,VALID,0,
2013-12-20, 01:31:04,VALID,917.962,VALID,0,VALID,97.0613,VALID,0.107441,VALID,19.6248,VALID,152,VALID,0,
2013-12-20, 01:32:04,VALID,917.923,VALID,0,VALID,97.069,VALID,0.107441,VALID,19.6248,VALID,151,VALID,0,
2013-12-20, 01:33:04,VALID,917.935,VALID,0,VALID,97.0613,VALID,0,VALID,19.6053,VALID,143,VALID,0,
2013-12-20, 01:34:04,VALID,917.914,VALID,0,VALID,97.0537,VALID,0.107441,VALID,19.5453,VALID,133,VALID,0,
2013-12-20, 01:35:04,VALID,917.896,VALID,0,VALID,97.0613,VALID,0,VALID,19.5663,VALID,116,VALID,0,
2013-12-20, 01:36:04,VALID,917.839,VALID,0,VALID,97.0766,VALID,0.107441,VALID,19.5063,VALID,118,VALID,0,
2013-12-20, 01:37:04,VALID,917.811,VALID,0,VALID,97.0613,VALID,0.107441,VALID,19.5258,VALID,118,VALID,0,
2013-12-20, 01:38:04,VALID,917.788,VALID,0,VALID,97.0766,VALID,0,VALID,19.5273,VALID,115,VALID,0,
2013-12-20, 01:39:04,VALID,917.758,VALID,0,VALID,97.0918,VALID,0.107441,VALID,19.5063,VALID,134,VALID,0,
2013-12-20, 01:40:04,VALID,917.736,VALID,0,VALID,97.0766,VALID,0.107441,VALID,19.5063,VALID,124,VALID,0,
2013-12-20, 01:41:04,VALID,917.761,VALID,0,VALID,97.0918,VALID,0,VALID,19.5258,VALID,108,VALID,0,
2013-12-20, 01:42:04,VALID,917.735,VALID,0,VALID,97.0842,VALID,0.107441,VALID,19.5468,VALID,121,VALID,0,
2013-12-20, 01:43:04,VALID,917.751,VALID,0,VALID,97.0842,VALID,0,VALID,19.5258,VALID,130,VALID,0,
2013-12-20, 01:44:04,VALID,917.72,VALID,0,VALID,97.0842,VALID,0,VALID,19.5468,VALID,135,VALID,0,
2013-12-20, 01:45:04,VALID,917.733,VALID,0,VALID,97.0994,VALID,0.107441,VALID,19.5468,VALID,139,VALID,0,
2013-12-20, 01:46:04,VALID,917.743,VALID,0,VALID,97.1147,VALID,0,VALID,19.5273,VALID,134,VALID,0,
2013-12-20, 01:47:04,VALID,917.767,VALID,0,VALID,97.1147,VALID,0,VALID,19.4868,VALID,136,VALID,0,
2013-12-20, 01:48:04,VALID,917.765,VALID,0,VALID,97.0994,VALID,0,VALID,19.4868,VALID,110,VALID,0,
2013-12-20, 01:49:04,VALID,917.784,VALID,0,VALID,97.0994,VALID,0.107441,VALID,19.4868,VALID,110,VALID,0,
2013-12-20, 01:50:04,VALID,917.779,VALID,0,VALID,97.1071,VALID,0,VALID,19.4868,VALID,119,VALID,0,
2013-12-20, 01:51:04,VALID,917.793,VALID,0,VALID,97.1147,VALID,0.107441,VALID,19.5078,VALID,118,VALID,0,
2013-12-20, 01:52:04,VALID,917.82,VALID,0,VALID,97.1071,VALID,0,VALID,19.5078,VALID,118,VALID,0,
2013-12-20, 01:53:04,VALID,917.781,VALID,0,VALID,97.1147,VALID,0,VALID,19.5078,VALID,118,VALID,0,
2013-12-20, 01:54:04,VALID,917.771,VALID,0,VALID,97.1071,VALID,0.107441,VALID,19.5078,VALID,118,VALID,0,
2013-12-20, 01:55:04,VALID,917.808,VALID,0,VALID,97.1223,VALID,0,VALID,19.5078,VALID,118,VALID,0,
2013-12-20, 01:56:04,VALID,917.775,VALID,0,VALID,97.1223,VALID,0.107441,VALID,19.4883,VALID,88,VALID,0,
2013-12-20, 01:57:04,VALID,917.774,VALID,0,VALID,97.1299,VALID,0.107441,VALID,19.4478,VALID,112,VALID,0,
2013-12-20, 01:58:04,VALID,917.753,VALID,0,VALID,97.1223,VALID,0.107441,VALID,19.4688,VALID,73,VALID,0,
2013-12-20, 01:59:04,VALID,917.738,VALID,0,VALID,97.1223,VALID,0.107441,VALID,19.4688,VALID,68,VALID,0,
2013-12-20, 02:00:04,VALID,917.731,VALID,0,VALID,97.1299,VALID,0,VALID,19.4493,VALID,56,VALID,0,
2013-12-20, 02:01:04,VALID,917.724,VALID,0,VALID,97.1299,VALID,0.107441,VALID,19.4493,VALID,81,VALID,0,
2013-12-20, 02:02:04,VALID,917.697,VALID,0,VALID,97.1147,VALID,0.107441,VALID,19.4283,VALID,64,VALID,0,
2013-12-20, 02:03:04,VALID,917.707,VALID,0,VALID,97.1299,VALID,0,VALID,19.4313,VALID,93,VALID,0,
2013-12-20, 02:04:04,VALID,917.715,VALID,0,VALID,97.1147,VALID,0,VALID,19.4313,VALID,98,VALID,0,
2013-12-20, 02:05:04,VALID,917.673,VALID,0,VALID,97.1071,VALID,0,VALID,19.4313,VALID,99,VALID,0,
2013-12-20, 02:06:04,VALID,917.665,VALID,0,VALID,97.1071,VALID,0,VALID,19.4313,VALID,100,VALID,0,
2013-12-20, 02:07:04,VALID,917.632,VALID,0,VALID,97.1147,VALID,0,VALID,19.4508,VALID,100,VALID,0,
2013-12-20, 02:08:04,VALID,917.647,VALID,0,VALID,97.1376,VALID,0,VALID,19.4313,VALID,125,VALID,0,
2013-12-20, 02:09:04,VALID,917.623,VALID,0,VALID,97.1147,VALID,0,VALID,19.4313,VALID,125,VALID,0,
2013-12-20, 02:10:04,VALID,917.588,VALID,0,VALID,97.1147,VALID,0,VALID,19.4508,VALID,125,VALID,0,
2013-12-20, 02:11:04,VALID,917.557,VALID,0,VALID,97.0994,VALID,0,VALID,19.4508,VALID,125,VALID,0,
2013-12-20, 02:12:04,VALID,917.542,VALID,0,VALID,97.1071,VALID,0,VALID,19.4313,VALID,130,VALID,0,
2013-12-20, 02:13:04,VALID,917.512,VALID,0,VALID,97.1147,VALID,0,VALID,19.4313,VALID,134,VALID,0,
2013-12-20, 02:14:04,VALID,917.504,VALID,0,VALID,97.1147,VALID,0,VALID,19.4313,VALID,138,VALID,0,
2013-12-20, 02:15:04,VALID,917.463,VALID,0,VALID,97.1223,VALID,0,VALID,19.4118,VALID,137,VALID,0,
2013-12-20, 02:16:04,VALID,917.481,VALID,0,VALID,97.1223,VALID,0,VALID,19.4313,VALID,139,VALID,0,
2013-12-20, 02:17:04,VALID,917.454,VALID,0,VALID,97.1147,VALID,0,VALID,19.4103,VALID,146,VALID,0,
2013-12-20, 02:18:04,VALID,917.382,VALID,0,VALID,97.1223,VALID,0,VALID,19.3908,VALID,142,VALID,0,
2013-12-20, 02:19:04,VALID,917.383,VALID,0,VALID,97.1147,VALID,0,VALID,19.4118,VALID,143,VALID,0,
2013-12-20, 02:20:04,VALID,917.343,VALID,0,VALID,97.1223,VALID,0,VALID,19.3728,VALID,143,VALID,0,
2013-12-20, 02:21:04,VALID,917.343,VALID,0,VALID,97.1223,VALID,0,VALID,19.3533,VALID,155,VALID,0,
2013-12-20, 02:22:04,VALID,917.36,VALID,0,VALID,97.0994,VALID,0,VALID,19.3728,VALID,154,VALID,0,
2013-12-20, 02:23:04,VALID,917.351,VALID,0,VALID,97.1147,VALID,0,VALID,19.3728,VALID,171,VALID,0,
2013-12-20, 02:24:04,VALID,917.343,VALID,0,VALID,97.0994,VALID,0,VALID,19.3728,VALID,143,VALID,0,
2013-12-20, 02:25:04,VALID,917.313,VALID,0,VALID,97.0994,VALID,0,VALID,19.3728,VALID,138,VALID,0,
2013-12-20, 02:26:04,VALID,917.316,VALID,0,VALID,97.0994,VALID,0,VALID,19.3728,VALID,128,VALID,0,
2013-12-20, 02:27:04,VALID,917.293,VALID,0,VALID,97.0918,VALID,0,VALID,19.3533,VALID,127,VALID,0,
2013-12-20, 02:28:04,VALID,917.285,VALID,0,VALID,97.0994,VALID,0,VALID,19.3338,VALID,127,VALID,0,
2013-12-20, 02:29:04,VALID,917.281,VALID,0,VALID,97.0994,VALID,0,VALID,19.2933,VALID,127,VALID,0,
2013-12-20, 02:30:04,VALID,917.305,VALID,0,VALID,97.1071,VALID,0,VALID,19.3143,VALID,127,VALID,0,
2013-12-20, 02:31:04,VALID,917.302,VALID,0,VALID,97.1071,VALID,0,VALID,19.2948,VALID,127,VALID,0,
2013-12-20, 02:32:04,VALID,917.327,VALID,0,VALID,97.0994,VALID,0,VALID,19.2753,VALID,127,VALID,0,
2013-12-20, 02:33:04,VALID,917.336,VALID,0,VALID,97.0994,VALID,0,VALID,19.2558,VALID,127,VALID,0,
2013-12-20, 02:34:04,VALID,917.353,VALID,0,VALID,97.1071,VALID,0,VALID,19.2363,VALID,127,VALID,0,
2013-12-20, 02:35:04,VALID,917.373,VALID,0,VALID,97.0994,VALID,0,VALID,19.2363,VALID,111,VALID,0,
2013-12-20, 02:36:04,VALID,917.357,VALID,0,VALID,97.1223,VALID,0,VALID,19.1973,VALID,111,VALID,0,
2013-12-20, 02:37:04,VALID,917.365,VALID,0,VALID,97.0994,VALID,0,VALID,19.1973,VALID,111,VALID,0,
2013-12-20, 02:38:04,VALID,917.365,VALID,0,VALID,97.1223,VALID,0,VALID,19.1973,VALID,111,VALID,0,
2013-12-20, 02:39:04,VALID,917.358,VALID,0,VALID,97.0994,VALID,0,VALID,19.1973,VALID,111,VALID,0,
2013-12-20, 02:40:04,VALID,917.346,VALID,0,VALID,97.1071,VALID,0,VALID,19.1973,VALID,111,VALID,0,
2013-12-20, 02:41:04,VALID,917.349,VALID,0,VALID,97.1299,VALID,0,VALID,19.2168,VALID,111,VALID,0,
2013-12-20, 02:42:04,VALID,917.348,VALID,0,VALID,97.1071,VALID,0,VALID,19.2558,VALID,111,VALID,0,
2013-12-20, 02:43:04,VALID,917.346,VALID,0,VALID,97.0994,VALID,0,VALID,19.2558,VALID,125,VALID,0,
2013-12-20, 02:44:04,VALID,917.351,VALID,0,VALID,97.0994,VALID,0,VALID,19.2558,VALID,125,VALID,0,
2013-12-20, 02:45:04,VALID,917.365,VALID,0,VALID,97.1071,VALID,0,VALID,19.2753,VALID,125,VALID,0,
2013-12-20, 02:46:04,VALID,917.362,VALID,0,VALID,97.1071,VALID,0,VALID,19.2753,VALID,125,VALID,0,
2013-12-20, 02:47:04,VALID,917.363,VALID,0,VALID,97.1071,VALID,0,VALID,19.2948,VALID,125,VALID,0,
2013-12-20, 02:48:04,VALID,917.375,VALID,0,VALID,97.1147,VALID,0.107441,VALID,19.2933,VALID,125,VALID,0,
2013-12-20, 02:49:04,VALID,917.369,VALID,0,VALID,97.1147,VALID,0,VALID,19.2543,VALID,125,VALID,0,
2013-12-20, 02:50:04,VALID,917.356,VALID,0,VALID,97.1299,VALID,0,VALID,19.2153,VALID,125,VALID,0,
2013-12-20, 02:51:04,VALID,917.355,VALID,0,VALID,97.1299,VALID,0,VALID,19.1763,VALID,125,VALID,0,
2013-12-20, 02:52:04,VALID,917.405,VALID,0,VALID,97.1376,VALID,0,VALID,19.1373,VALID,125,VALID,0,
2013-12-20, 02:53:04,VALID,917.396,VALID,0,VALID,97.1223,VALID,0,VALID,19.1373,VALID,125,VALID,0,
2013-12-20, 02:54:04,VALID,917.388,VALID,0,VALID,97.1223,VALID,0,VALID,19.0983,VALID,125,VALID,0,
2013-12-20, 02:55:04,VALID,917.447,VALID,0,VALID,97.1376,VALID,0.107441,VALID,19.0983,VALID,125,VALID,0,
2013-12-20, 02:56:04,VALID,917.407,VALID,0,VALID,97.1376,VALID,0,VALID,19.0788,VALID,125,VALID,0,
2013-12-20, 02:57:04,VALID,917.423,VALID,0,VALID,97.1376,VALID,0,VALID,19.0788,VALID,125,VALID,0,
2013-12-20, 02:58:04,VALID,917.462,VALID,0,VALID,97.1604,VALID,0,VALID,19.0593,VALID,125,VALID,0,
2013-12-20, 02:59:04,VALID,917.458,VALID,0,VALID,97.1376,VALID,0,VALID,19.0593,VALID,125,VALID,0,
2013-12-20, 03:00:04,VALID,917.469,VALID,0,VALID,97.1299,VALID,0,VALID,19.0788,VALID,125,VALID,0,
2013-12-20, 03:01:04,VALID,917.481,VALID,0,VALID,97.1223,VALID,0,VALID,19.0983,VALID,125,VALID,0,
2013-12-20, 03:02:04,VALID,917.456,VALID,0,VALID,97.1528,VALID,0,VALID,19.1193,VALID,125,VALID,0,
2013-12-20, 03:03:04,VALID,917.464,VALID,0,VALID,97.1528,VALID,0,VALID,19.1178,VALID,125,VALID,0,
2013-12-20, 03:04:04,VALID,917.491,VALID,0,VALID,97.1757,VALID,0,VALID,19.0983,VALID,125,VALID,0,
2013-12-20, 03:05:04,VALID,917.47,VALID,0,VALID,97.1604,VALID,0,VALID,19.1178,VALID,125,VALID,0,
2013-12-20, 03:06:04,VALID,917.488,VALID,0,VALID,97.1528,VALID,0.107441,VALID,19.1373,VALID,125,VALID,0,
2013-12-20, 03:07:04,VALID,917.487,VALID,0,VALID,97.1528,VALID,0.107441,VALID,19.1373,VALID,125,VALID,0,
2013-12-20, 03:08:04,VALID,917.507,VALID,0,VALID,97.1681,VALID,0,VALID,19.1178,VALID,125,VALID,0,
2013-12-20, 03:09:04,VALID,917.489,VALID,0,VALID,97.1757,VALID,0,VALID,19.0788,VALID,125,VALID,0,
2013-12-20, 03:10:04,VALID,917.503,VALID,0,VALID,97.1681,VALID,0.107441,VALID,19.0788,VALID,125,VALID,0,
2013-12-20, 03:11:04,VALID,917.499,VALID,0,VALID,97.1681,VALID,0,VALID,19.0788,VALID,125,VALID,0,
2013-12-20, 03:12:04,VALID,917.476,VALID,0,VALID,97.1757,VALID,0,VALID,19.0788,VALID,125,VALID,0,
2013-12-20, 03:13:04,VALID,917.456,VALID,0,VALID,97.1757,VALID,0,VALID,19.1178,VALID,125,VALID,0,
2013-12-20, 03:14:04,VALID,917.466,VALID,0,VALID,97.1833,VALID,0,VALID,19.1778,VALID,125,VALID,0,
2013-12-20, 03:15:04,VALID,917.476,VALID,0,VALID,97.1757,VALID,0,VALID,19.1568,VALID,125,VALID,0,
2013-12-20, 03:16:04,VALID,917.444,VALID,0,VALID,97.1604,VALID,0,VALID,19.1763,VALID,125,VALID,0,
2013-12-20, 03:17:05,VALID,917.439,VALID,0,VALID,97.1757,VALID,0,VALID,19.1958,VALID,125,VALID,0,
2013-12-20, 03:18:05,VALID,917.422,VALID,0,VALID,97.1833,VALID,0,VALID,19.1958,VALID,125,VALID,0,
2013-12-20, 03:19:05,VALID,917.46,VALID,0,VALID,97.1757,VALID,0.107441,VALID,19.2153,VALID,125,VALID,0,
2013-12-20, 03:20:05,VALID,917.416,VALID,0,VALID,97.1909,VALID,0,VALID,19.2348,VALID,125,VALID,0,
2013-12-20, 03:21:05,VALID,917.382,VALID,0,VALID,97.1604,VALID,0,VALID,19.2153,VALID,125,VALID,0,
2013-12-20, 03:22:05,VALID,917.417,VALID,0,VALID,97.2062,VALID,0,VALID,19.1568,VALID,125,VALID,0,
2013-12-20, 03:23:05,VALID,917.359,VALID,0,VALID,97.1986,VALID,0,VALID,19.1373,VALID,125,VALID,0,
2013-12-20, 03:24:05,VALID,917.386,VALID,0,VALID,97.1833,VALID,0,VALID,19.1568,VALID,125,VALID,0,
2013-12-20, 03:25:05,VALID,917.384,VALID,0,VALID,97.2062,VALID,0,VALID,19.1568,VALID,125,VALID,0,
2013-12-20, 03:26:05,VALID,917.383,VALID,0,VALID,97.1986,VALID,0,VALID,19.1763,VALID,125,VALID,0,
2013-12-20, 03:27:05,VALID,917.367,VALID,0,VALID,97.1757,VALID,0,VALID,19.1568,VALID,125,VALID,0,
2013-12-20, 03:28:05,VALID,917.375,VALID,0,VALID,97.1909,VALID,0,VALID,19.1568,VALID,125,VALID,0,
2013-12-20, 03:29:05,VALID,917.366,VALID,0,VALID,97.2062,VALID,0,VALID,19.1568,VALID,125,VALID,0,
2013-12-20, 03:30:05,VALID,917.353,VALID,0,VALID,97.1833,VALID,0,VALID,19.1778,VALID,110,VALID,0,
2013-12-20, 03:31:05,VALID,917.364,VALID,0,VALID,97.1833,VALID,0,VALID,19.1373,VALID,110,VALID,0,
2013-12-20, 03:32:05,VALID,917.366,VALID,0,VALID,97.1986,VALID,0,VALID,19.1778,VALID,110,VALID,0,
2013-12-20, 03:33:05,VALID,917.364,VALID,0,VALID,97.1986,VALID,0,VALID,19.1778,VALID,110,VALID,0,
2013-12-20, 03:34:05,VALID,917.371,VALID,0,VALID,97.1833,VALID,0,VALID,19.1778,VALID,110,VALID,0,
2013-12-20, 03:35:05,VALID,917.407,VALID,0,VALID,97.1909,VALID,0,VALID,19.1568,VALID,110,VALID,0,
2013-12-20, 03:36:05,VALID,917.414,VALID,0,VALID,97.1833,VALID,0,VALID,19.1763,VALID,110,VALID,0,
2013-12-20, 03:37:05,VALID,917.439,VALID,0,VALID,97.1909,VALID,0,VALID,19.1958,VALID,110,VALID,0,
2013-12-20, 03:38:05,VALID,917.447,VALID,0,VALID,97.2062,VALID,0,VALID,19.1958,VALID,110,VALID,0,
2013-12-20, 03:39:05,VALID,917.463,VALID,0,VALID,97.1986,VALID,0,VALID,19.2153,VALID,110,VALID,0,
2013-12-20, 03:40:05,VALID,917.449,VALID,0,VALID,97.2138,VALID,0,VALID,19.2168,VALID,110,VALID,0,
2013-12-20, 03:41:05,VALID,917.454,VALID,0,VALID,97.1909,VALID,0,VALID,19.2348,VALID,110,VALID,0,
2013-12-20, 03:42:05,VALID,917.443,VALID,0,VALID,97.2062,VALID,0,VALID,19.1958,VALID,110,VALID,0,
2013-12-20, 03:43:05,VALID,917.415,VALID,0,VALID,97.2138,VALID,0,VALID,19.1973,VALID,110,VALID,0,
2013-12-20, 03:44:05,VALID,917.414,VALID,0,VALID,97.2214,VALID,0,VALID,19.1373,VALID,110,VALID,0,
2013-12-20, 03:45:05,VALID,917.386,VALID,0,VALID,97.2062,VALID,0,VALID,19.0983,VALID,111,VALID,0,
2013-12-20, 03:46:05,VALID,917.385,VALID,0,VALID,97.2138,VALID,0,VALID,19.0788,VALID,110,VALID,0,
2013-12-20, 03:47:05,VALID,917.382,VALID,0,VALID,97.1986,VALID,0,VALID,19.0998,VALID,110,VALID,0,
2013-12-20, 03:48:05,VALID,917.369,VALID,0,VALID,97.1986,VALID,0,VALID,19.0803,VALID,110,VALID,0,
2013-12-20, 03:49:05,VALID,917.35,VALID,0,VALID,97.2138,VALID,0,VALID,19.0398,VALID,111,VALID,0,
2013-12-20, 03:50:05,VALID,917.322,VALID,0,VALID,97.229,VALID,0,VALID,19.0398,VALID,112,VALID,0,
2013-12-20, 03:51:05,VALID,917.313,VALID,0,VALID,97.2138,VALID,0,VALID,19.0608,VALID,112,VALID,0,
2013-12-20, 03:52:05,VALID,917.292,VALID,0,VALID,97.2214,VALID,0,VALID,19.0608,VALID,125,VALID,0,
2013-12-20, 03:53:05,VALID,917.258,VALID,0,VALID,97.2367,VALID,0,VALID,19.0608,VALID,125,VALID,0,
2013-12-20, 03:54:05,VALID,917.205,VALID,0,VALID,97.229,VALID,0,VALID,19.0203,VALID,123,VALID,0,
2013-12-20, 03:55:05,VALID,917.193,VALID,0,VALID,97.2367,VALID,0,VALID,19.0008,VALID,123,VALID,0,
2013-12-20, 03:56:05,VALID,917.221,VALID,0,VALID,97.2443,VALID,0,VALID,18.9814,VALID,118,VALID,0,
2013-12-20, 03:57:05,VALID,917.216,VALID,0,VALID,97.2519,VALID,0,VALID,19.0023,VALID,118,VALID,0,